Time,TemperatureF,DewpointF,PressureIn,WindDirection,WindDirectionDegrees,WindSpeedMPH,WindSpeedGustMPH,Humidity,HourlyPrecipIn,Conditions,Clouds,dailyrainin,SoftwareType,DateUTC
2013-08-18 00:00:00,62.8,59.5,30.31,SSE,167,0.0,0.0,89,0.00,,,-99.99,meteobridge,2013-08-18 04:00:00,
2013-08-18 00:01:00,62.8,59.5,30.32,SSE,167,0.0,0.0,89,0.00,,,0.00,meteobridge,2013-08-18 04:01:00,
2013-08-18 00:02:00,62.6,59.4,30.31,SSE,167,0.0,0.0,89,0.00,,,0.00,meteobridge,2013-08-18 04:02:00,
2013-08-18 00:06:00,62.6,59.5,30.32,SSE,167,0.0,0.0,90,0.00,,,0.00,meteobridge,2013-08-18 04:06:00,
2013-08-18 00:11:00,62.4,59.4,30.31,SSE,167,0.0,0.0,90,0.00,,,0.00,meteobridge,2013-08-18 04:11:00,
2013-08-18 00:16:00,62.4,59.4,30.31,SSE,167,0.0,0.0,90,0.00,,,0.00,meteobridge,2013-08-18 04:16:00,
2013-08-18 00:21:00,62.4,59.4,30.31,SSE,167,0.0,0.0,90,0.00,,,0.00,meteobridge,2013-08-18 04:21:00,
2013-08-18 00:26:00,62.4,59.4,30.31,SSE,167,0.0,0.0,90,0.00,,,0.00,meteobridge,2013-08-18 04:26:00,
2013-08-18 00:31:00,62.4,59.4,30.31,SSE,167,0.0,0.0,90,0.00,,,0.00,meteobridge,2013-08-18 04:31:00,
2013-08-18 00:36:00,62.2,59.2,30.30,SSE,167,0.0,0.0,90,0.00,,,0.00,meteobridge,2013-08-18 04:36:00,
2013-08-18 00:41:00,62.2,59.2,30.30,SSE,167,0.0,0.0,90,0.00,,,0.00,meteobridge,2013-08-18 04:41:00,
2013-08-18 00:46:00,62.2,59.5,30.30,SSE,167,0.0,0.0,91,0.00,,,0.00,meteobridge,2013-08-18 04:46:00,
2013-08-18 00:52:00,62.2,59.5,30.30,SSE,167,0.0,0.0,91,0.00,,,0.00,meteobridge,2013-08-18 04:52:00,
2013-08-18 00:57:00,62.1,59.4,30.30,SSE,167,0.0,0.0,91,0.00,,,0.00,meteobridge,2013-08-18 04:57:00,
2013-08-18 01:02:00,62.1,59.4,30.30,SSE,167,0.0,0.0,91,0.00,,,0.00,meteobridge,2013-08-18 05:02:00,
2013-08-18 01:07:00,62.1,59.4,30.30,SSE,167,0.0,0.0,91,0.00,,,0.00,meteobridge,2013-08-18 05:07:00,
2013-08-18 01:12:00,62.1,59.4,30.30,SSE,167,0.0,0.0,91,0.00,,,0.00,meteobridge,2013-08-18 05:12:00,
2013-08-18 01:17:00,62.1,59.7,30.30,SSE,167,0.0,0.0,92,0.00,,,0.00,meteobridge,2013-08-18 05:17:00,
2013-08-18 01:22:00,62.1,59.4,30.30,SSE,167,0.0,0.0,91,0.00,,,0.00,meteobridge,2013-08-18 05:22:00,
2013-08-18 01:27:00,62.1,59.4,30.30,SSE,167,0.0,0.0,91,0.00,,,0.00,meteobridge,2013-08-18 05:27:00,
2013-08-18 01:32:00,62.1,59.7,30.29,SSE,167,0.0,0.0,92,0.00,,,0.00,meteobridge,2013-08-18 05:32:00,
2013-08-18 01:38:00,62.1,59.7,30.29,SSE,167,0.0,0.0,92,0.00,,,0.00,meteobridge,2013-08-18 05:38:00,
2013-08-18 01:43:00,62.1,59.7,30.29,SSE,167,0.0,0.0,92,0.00,,,0.00,meteobridge,2013-08-18 05:43:00,
2013-08-18 01:48:00,62.1,59.7,30.29,SSE,167,0.0,0.0,92,0.00,,,0.00,meteobridge,2013-08-18 05:48:00,
2013-08-18 01:53:00,62.1,60.1,30.29,SSE,167,0.0,0.0,93,0.00,,,0.00,meteobridge,2013-08-18 05:53:00,
2013-08-18 01:58:00,62.1,60.1,30.29,SSE,167,0.0,0.0,93,0.00,,,0.00,meteobridge,2013-08-18 05:58:00,
2013-08-18 02:03:00,61.9,59.9,30.29,SSE,167,0.0,0.0,93,0.00,,,0.00,meteobridge,2013-08-18 06:03:00,
2013-08-18 02:08:00,61.9,59.9,30.29,SSE,167,0.0,0.0,93,0.00,,,0.00,meteobridge,2013-08-18 06:08:00,
2013-08-18 02:14:00,61.9,59.9,30.29,SSE,167,0.0,0.0,93,0.00,,,0.00,meteobridge,2013-08-18 06:14:00,
2013-08-18 02:19:00,61.9,59.9,30.29,SSE,167,0.0,0.0,93,0.00,,,0.00,meteobridge,2013-08-18 06:19:00,
2013-08-18 02:24:00,61.9,59.9,30.30,SSE,167,0.0,0.0,93,0.00,,,0.00,meteobridge,2013-08-18 06:24:00,
2013-08-18 02:29:00,61.9,59.9,30.29,SSE,167,0.0,0.0,93,0.00,,,0.00,meteobridge,2013-08-18 06:29:00,
2013-08-18 02:34:00,61.9,59.9,30.29,SSE,167,0.0,0.0,93,0.00,,,0.00,meteobridge,2013-08-18 06:34:00,
2013-08-18 02:39:00,61.5,59.5,30.29,SSE,167,0.0,0.0,93,0.00,,,0.00,meteobridge,2013-08-18 06:39:00,
2013-08-18 02:44:00,61.5,59.5,30.29,SSE,167,0.0,0.0,93,0.00,,,0.00,meteobridge,2013-08-18 06:44:00,
2013-08-18 02:49:00,61.3,59.4,30.29,SSE,167,0.0,0.0,93,0.00,,,0.00,meteobridge,2013-08-18 06:49:00,
2013-08-18 02:54:00,61.3,59.4,30.29,SSE,167,0.0,0.0,93,0.00,,,0.00,meteobridge,2013-08-18 06:54:00,
2013-08-18 03:00:00,61.3,59.5,30.29,SSE,167,0.0,0.0,94,0.00,,,0.00,meteobridge,2013-08-18 07:00:00,
2013-08-18 03:05:00,61.3,59.5,30.29,SSE,167,0.0,0.0,94,0.00,,,0.00,meteobridge,2013-08-18 07:05:00,
2013-08-18 03:10:00,61.3,59.5,30.28,SSE,167,0.0,0.0,94,0.00,,,0.00,meteobridge,2013-08-18 07:10:00,
2013-08-18 03:15:00,61.3,59.5,30.29,SSE,167,0.0,0.0,94,0.00,,,0.00,meteobridge,2013-08-18 07:15:00,
2013-08-18 03:20:00,61.3,59.5,30.29,SSE,167,0.0,0.0,94,0.00,,,0.00,meteobridge,2013-08-18 07:20:00,
2013-08-18 03:25:00,61.3,59.5,30.29,SSE,167,0.0,0.0,94,0.00,,,0.00,meteobridge,2013-08-18 07:25:00,
2013-08-18 03:30:00,61.3,59.5,30.29,SSE,167,0.0,0.0,94,0.00,,,0.00,meteobridge,2013-08-18 07:30:00,
2013-08-18 03:36:00,61.3,59.9,30.29,SSE,167,0.0,0.0,95,0.00,,,0.00,meteobridge,2013-08-18 07:36:00,
2013-08-18 03:41:00,61.3,59.9,30.29,SSE,167,0.0,0.0,95,0.00,,,0.00,meteobridge,2013-08-18 07:41:00,
2013-08-18 03:46:00,61.3,59.9,30.29,SSE,167,0.0,0.0,95,0.00,,,0.00,meteobridge,2013-08-18 07:46:00,
2013-08-18 03:51:00,61.3,59.9,30.29,SSE,167,0.0,0.0,95,0.00,,,0.00,meteobridge,2013-08-18 07:51:00,
2013-08-18 03:56:00,61.5,60.1,30.29,SSE,167,0.0,0.0,95,0.00,,,0.00,meteobridge,2013-08-18 07:56:00,
2013-08-18 04:02:00,61.5,60.1,30.29,SSE,167,0.0,0.0,95,0.00,,,0.00,meteobridge,2013-08-18 08:02:00,
2013-08-18 04:07:00,61.7,60.3,30.29,SSE,167,0.0,0.0,95,0.00,,,0.00,meteobridge,2013-08-18 08:07:00,
2013-08-18 04:13:00,61.7,60.3,30.29,SSE,167,0.0,0.0,95,0.00,,,0.00,meteobridge,2013-08-18 08:13:00,
2013-08-18 04:18:00,61.9,60.4,30.29,SSE,167,0.0,0.0,95,0.00,,,0.00,meteobridge,2013-08-18 08:18:00,
2013-08-18 04:23:00,61.9,60.4,30.29,SSE,167,0.0,0.0,95,0.00,,,0.00,meteobridge,2013-08-18 08:23:00,
2013-08-18 04:28:00,61.7,60.3,30.29,SSE,167,0.0,0.0,95,0.00,,,0.00,meteobridge,2013-08-18 08:28:00,
2013-08-18 04:33:00,61.7,60.3,30.29,SSE,167,0.0,0.0,95,0.00,,,0.00,meteobridge,2013-08-18 08:33:00,
2013-08-18 04:38:00,61.9,60.4,30.29,SSE,167,0.0,0.0,95,0.00,,,0.00,meteobridge,2013-08-18 08:38:00,
2013-08-18 04:43:00,61.9,60.4,30.29,SSE,167,0.0,0.0,95,0.00,,,0.00,meteobridge,2013-08-18 08:43:00,
2013-08-18 04:49:00,61.9,60.4,30.29,SSE,167,0.0,0.0,95,0.00,,,0.00,meteobridge,2013-08-18 08:49:00,
2013-08-18 04:54:00,61.9,60.4,30.29,SSE,167,0.0,0.0,95,0.00,,,0.00,meteobridge,2013-08-18 08:54:00,
2013-08-18 04:59:00,61.9,60.4,30.29,SSE,167,0.0,0.0,95,0.00,,,0.00,meteobridge,2013-08-18 08:59:00,
2013-08-18 05:04:00,61.9,60.4,30.28,SSE,167,0.0,0.0,95,0.00,,,0.00,meteobridge,2013-08-18 09:04:00,
2013-08-18 05:09:00,61.9,60.4,30.29,SSE,167,0.0,0.0,95,0.00,,,0.00,meteobridge,2013-08-18 09:09:00,
2013-08-18 05:14:00,61.9,60.4,30.29,SSE,167,0.0,0.0,95,0.00,,,0.00,meteobridge,2013-08-18 09:14:00,
2013-08-18 05:19:00,62.1,60.6,30.29,SSE,167,0.0,0.0,95,0.00,,,0.00,meteobridge,2013-08-18 09:19:00,
2013-08-18 05:25:00,62.1,60.6,30.29,SSE,167,0.0,0.0,95,0.00,,,0.00,meteobridge,2013-08-18 09:25:00,
2013-08-18 05:30:00,61.9,60.4,30.29,SSE,167,0.0,0.0,95,0.00,,,0.00,meteobridge,2013-08-18 09:30:00,
2013-08-18 05:35:00,62.1,60.6,30.29,SSE,167,0.0,0.0,95,0.00,,,0.00,meteobridge,2013-08-18 09:35:00,
2013-08-18 05:40:00,62.1,60.6,30.29,SSE,167,0.0,0.0,95,0.00,,,0.00,meteobridge,2013-08-18 09:40:00,
2013-08-18 05:45:00,62.1,60.6,30.29,SSE,167,0.0,0.0,95,0.00,,,0.00,meteobridge,2013-08-18 09:45:00,
2013-08-18 05:50:00,62.2,60.8,30.29,SSE,167,0.0,0.0,95,0.00,,,0.00,meteobridge,2013-08-18 09:50:00,
2013-08-18 05:56:00,62.2,60.8,30.29,SSE,167,0.0,0.0,95,0.00,,,0.00,meteobridge,2013-08-18 09:56:00,
2013-08-18 06:01:00,62.1,60.6,30.29,SSE,167,0.0,0.0,95,0.00,,,0.00,meteobridge,2013-08-18 10:01:00,
2013-08-18 06:06:00,62.1,60.6,30.29,SSE,167,0.0,0.0,95,0.00,,,0.00,meteobridge,2013-08-18 10:06:00,
2013-08-18 06:11:00,62.1,60.6,30.29,SSE,167,0.0,0.0,95,0.00,,,0.00,meteobridge,2013-08-18 10:11:00,
2013-08-18 06:16:00,62.1,60.6,30.29,SSE,167,0.0,0.0,95,0.00,,,0.00,meteobridge,2013-08-18 10:16:00,
2013-08-18 06:22:00,62.1,60.6,30.29,SSE,167,0.0,0.0,95,0.00,,,0.00,meteobridge,2013-08-18 10:22:00,
2013-08-18 06:27:00,62.2,60.8,30.29,SSE,167,0.0,0.0,95,0.00,,,0.00,meteobridge,2013-08-18 10:27:00,
2013-08-18 06:32:00,62.1,60.6,30.29,SSE,167,0.0,0.0,95,0.00,,,0.00,meteobridge,2013-08-18 10:32:00,
2013-08-18 06:37:00,62.2,60.8,30.29,SSE,167,0.0,0.0,95,0.00,,,0.00,meteobridge,2013-08-18 10:37:00,
2013-08-18 06:42:00,62.2,60.8,30.29,SSE,167,0.0,0.0,95,0.00,,,0.00,meteobridge,2013-08-18 10:42:00,
2013-08-18 06:48:00,62.2,61.2,30.29,SSE,167,0.0,0.0,96,0.00,,,0.00,meteobridge,2013-08-18 10:48:00,
2013-08-18 06:53:00,62.2,61.2,30.29,SSE,167,0.0,0.0,96,0.00,,,0.00,meteobridge,2013-08-18 10:53:00,
2013-08-18 06:58:00,62.4,61.3,30.29,SSE,167,0.0,0.0,96,0.00,,,0.00,meteobridge,2013-08-18 10:58:00,
2013-08-18 07:03:00,62.6,61.5,30.29,SSE,167,0.0,0.0,96,0.00,,,0.00,meteobridge,2013-08-18 11:03:00,
2013-08-18 07:08:00,62.8,61.7,30.29,SSE,167,0.0,0.0,96,0.00,,,0.00,meteobridge,2013-08-18 11:08:00,
2013-08-18 07:13:00,63.0,61.9,30.30,SSE,167,0.0,0.0,96,0.00,,,0.00,meteobridge,2013-08-18 11:13:00,
2013-08-18 07:18:00,63.1,62.1,30.30,SSE,167,0.0,0.0,96,0.00,,,0.00,meteobridge,2013-08-18 11:18:00,
2013-08-18 07:24:00,63.3,62.2,30.30,SSE,167,0.0,0.0,96,0.00,,,0.00,meteobridge,2013-08-18 11:24:00,
2013-08-18 07:29:00,63.5,62.4,30.30,SSE,167,0.0,0.0,96,0.00,,,0.00,meteobridge,2013-08-18 11:29:00,
2013-08-18 07:34:00,63.7,62.6,30.30,SSE,167,0.0,0.0,96,0.00,,,0.00,meteobridge,2013-08-18 11:34:00,
2013-08-18 07:39:00,63.9,62.8,30.30,SSE,167,0.0,0.0,96,0.00,,,0.00,meteobridge,2013-08-18 11:39:00,
2013-08-18 07:44:00,64.2,63.1,30.30,SSE,167,0.0,0.0,96,0.00,,,0.00,meteobridge,2013-08-18 11:44:00,
2013-08-18 07:49:00,64.6,63.5,30.30,SSE,167,0.0,0.0,96,0.00,,,0.00,meteobridge,2013-08-18 11:49:00,
2013-08-18 07:54:00,64.8,63.7,30.30,SSE,167,0.0,0.0,96,0.00,,,0.00,meteobridge,2013-08-18 11:54:00,
2013-08-18 08:00:00,65.1,64.0,30.30,SSE,167,0.0,0.0,96,0.00,,,0.00,meteobridge,2013-08-18 12:00:00,
2013-08-18 08:05:00,65.5,64.2,30.30,SSE,167,0.0,0.0,96,0.00,,,0.00,meteobridge,2013-08-18 12:05:00,
2013-08-18 08:10:00,65.7,64.4,30.30,SSE,167,0.0,0.0,96,0.00,,,0.00,meteobridge,2013-08-18 12:10:00,
2013-08-18 08:15:00,65.8,64.4,30.30,SSE,167,0.0,0.0,95,0.00,,,0.00,meteobridge,2013-08-18 12:15:00,
2013-08-18 08:20:00,66.2,64.9,30.30,SSE,167,0.0,0.0,96,0.00,,,0.00,meteobridge,2013-08-18 12:20:00,
2013-08-18 08:26:00,66.6,65.1,30.30,SSE,167,0.0,0.0,95,0.00,,,0.00,meteobridge,2013-08-18 12:26:00,
2013-08-18 08:31:00,66.7,65.3,30.30,SSE,167,0.0,0.0,95,0.00,,,0.00,meteobridge,2013-08-18 12:31:00,
2013-08-18 08:36:00,67.1,65.7,30.29,SSE,167,0.0,0.0,95,0.00,,,0.00,meteobridge,2013-08-18 12:36:00,
2013-08-18 08:41:00,67.3,65.8,30.29,SSE,167,0.0,0.0,95,0.00,,,0.00,meteobridge,2013-08-18 12:41:00,
2013-08-18 08:46:00,67.6,65.8,30.30,SSE,167,0.0,0.0,94,0.00,,,0.00,meteobridge,2013-08-18 12:46:00,
2013-08-18 08:51:00,67.6,65.5,30.30,SSE,167,0.0,0.0,93,0.00,,,0.00,meteobridge,2013-08-18 12:51:00,
2013-08-18 08:56:00,67.8,65.7,30.30,SSE,167,0.9,0.9,93,0.00,,,0.00,meteobridge,2013-08-18 12:56:00,
2013-08-18 09:02:00,68.2,65.8,30.30,SSE,167,0.0,0.0,92,0.00,,,0.00,meteobridge,2013-08-18 13:02:00,
2013-08-18 09:07:00,68.4,66.0,30.30,SSE,167,0.0,0.0,92,0.00,,,0.00,meteobridge,2013-08-18 13:07:00,
2013-08-18 09:12:00,68.4,65.7,30.30,SSE,167,0.0,0.0,91,0.00,,,0.00,meteobridge,2013-08-18 13:12:00,
2013-08-18 09:17:00,68.4,66.0,30.30,SSE,167,0.0,0.0,92,0.00,,,0.00,meteobridge,2013-08-18 13:17:00,
2013-08-18 09:23:00,68.5,66.2,30.29,SSE,167,0.0,2.0,92,0.00,,,0.00,meteobridge,2013-08-18 13:23:00,
2013-08-18 09:28:00,68.5,66.2,30.29,ENE,61,0.9,2.9,92,0.00,,,0.00,meteobridge,2013-08-18 13:28:00,
2013-08-18 09:33:00,68.5,65.8,30.29,ENE,61,0.0,0.9,91,0.00,,,0.00,meteobridge,2013-08-18 13:33:00,
2013-08-18 09:38:00,68.7,66.0,30.29,ENE,61,0.0,0.0,91,0.00,,,0.00,meteobridge,2013-08-18 13:38:00,
2013-08-18 09:44:00,69.1,66.7,30.29,ENE,61,0.0,0.9,92,0.00,,,0.00,meteobridge,2013-08-18 13:44:00,
2013-08-18 09:49:00,69.4,67.1,30.29,ENE,61,0.0,2.0,92,0.00,,,0.00,meteobridge,2013-08-18 13:49:00,
2013-08-18 09:54:00,69.6,66.6,30.29,ENE,61,0.0,0.9,90,0.00,,,0.00,meteobridge,2013-08-18 13:54:00,
2013-08-18 09:59:00,70.2,66.7,30.29,ESE,116,0.0,2.0,89,0.00,,,0.00,meteobridge,2013-08-18 13:59:00,
2013-08-18 10:04:00,70.5,66.7,30.29,NNE,22,2.9,4.0,88,0.00,,,0.00,meteobridge,2013-08-18 14:04:00,
2013-08-18 10:09:00,70.9,66.2,30.29,NNW,348,2.9,2.9,85,0.00,,,0.00,meteobridge,2013-08-18 14:09:00,
2013-08-18 10:14:00,71.1,66.0,30.29,South,178,4.0,4.9,84,0.00,,,0.00,meteobridge,2013-08-18 14:14:00,
2013-08-18 10:20:00,71.2,65.5,30.29,NE,55,2.0,2.0,82,0.00,,,0.00,meteobridge,2013-08-18 14:20:00,
2013-08-18 10:25:00,71.8,66.0,30.29,SSE,152,0.9,4.9,82,0.00,,,0.00,meteobridge,2013-08-18 14:25:00,
2013-08-18 10:30:00,72.0,65.5,30.29,SSE,153,0.0,2.0,80,0.00,,,0.00,meteobridge,2013-08-18 14:30:00,
2013-08-18 10:35:00,72.1,65.3,30.29,NNE,32,2.0,4.9,79,0.00,,,0.00,meteobridge,2013-08-18 14:35:00,
2013-08-18 10:40:00,72.5,66.0,30.29,East,99,0.0,0.9,80,0.00,,,0.00,meteobridge,2013-08-18 14:40:00,
2013-08-18 10:45:00,72.9,65.7,30.29,NNE,15,0.0,0.9,78,0.00,,,0.00,meteobridge,2013-08-18 14:45:00,
2013-08-18 10:50:00,73.4,65.7,30.29,NE,44,4.9,6.0,77,0.00,,,0.00,meteobridge,2013-08-18 14:50:00,
2013-08-18 10:55:00,73.8,65.3,30.29,ESE,111,0.9,0.9,75,0.00,,,0.00,meteobridge,2013-08-18 14:55:00,
2013-08-18 11:00:00,73.9,65.5,30.29,ENE,57,4.0,4.0,75,0.00,,,0.00,meteobridge,2013-08-18 15:00:00,
2013-08-18 11:05:00,74.1,65.7,30.29,SE,124,0.9,4.0,75,0.00,,,0.00,meteobridge,2013-08-18 15:05:00,
2013-08-18 11:10:00,74.3,65.8,30.29,ESE,103,0.9,2.0,75,0.00,,,0.00,meteobridge,2013-08-18 15:10:00,
2013-08-18 11:15:00,74.3,65.5,30.29,ENE,72,0.0,2.0,74,0.00,,,0.00,meteobridge,2013-08-18 15:15:00,
2013-08-18 11:20:00,74.7,65.8,30.29,ENE,73,0.9,0.9,74,0.00,,,0.00,meteobridge,2013-08-18 15:20:00,
2013-08-18 11:25:00,74.7,65.1,30.29,NNW,339,2.9,4.0,72,0.00,,,0.00,meteobridge,2013-08-18 15:25:00,
2013-08-18 11:30:00,74.7,65.8,30.29,NNE,12,2.0,6.0,74,0.00,,,0.00,meteobridge,2013-08-18 15:30:00,
2013-08-18 11:35:00,74.5,65.7,30.29,WNW,288,0.9,0.9,74,0.00,,,0.00,meteobridge,2013-08-18 15:35:00,
2013-08-18 11:40:00,74.5,65.3,30.29,South,178,2.0,4.9,73,0.00,,,0.00,meteobridge,2013-08-18 15:40:00,
2013-08-18 11:46:00,74.7,65.8,30.29,ESE,123,2.0,6.0,74,0.00,,,0.00,meteobridge,2013-08-18 15:46:00,
2013-08-18 11:51:00,74.8,66.0,30.29,NNE,30,0.9,4.0,74,0.00,,,0.00,meteobridge,2013-08-18 15:51:00,
2013-08-18 11:56:00,75.0,66.6,30.29,NW,326,2.9,2.9,75,0.00,,,0.00,meteobridge,2013-08-18 15:56:00,
2013-08-18 12:01:00,75.0,65.3,30.29,ESE,106,0.9,4.0,72,0.00,,,0.00,meteobridge,2013-08-18 16:01:00,
2013-08-18 12:06:00,75.0,64.2,30.28,NNE,15,0.0,4.0,69,0.00,,,0.00,meteobridge,2013-08-18 16:06:00,
2013-08-18 12:11:00,75.4,65.3,30.29,NE,36,0.0,2.0,71,0.00,,,0.00,meteobridge,2013-08-18 16:11:00,
2013-08-18 12:16:00,75.4,65.3,30.28,SE,131,2.0,2.0,71,0.00,,,0.00,meteobridge,2013-08-18 16:16:00,
2013-08-18 12:22:00,75.4,65.3,30.28,NE,34,0.9,4.9,71,0.00,,,0.00,meteobridge,2013-08-18 16:22:00,
2013-08-18 12:27:00,75.0,64.2,30.28,SE,134,0.9,4.0,69,0.00,,,0.00,meteobridge,2013-08-18 16:27:00,
2013-08-18 12:32:00,74.8,64.0,30.28,ENE,57,2.0,6.9,69,0.00,,,0.00,meteobridge,2013-08-18 16:32:00,
2013-08-18 12:37:00,74.7,64.2,30.28,SE,127,0.0,4.0,70,0.00,,,0.00,meteobridge,2013-08-18 16:37:00,
2013-08-18 12:42:00,74.7,65.5,30.29,ESE,107,0.9,4.0,73,0.00,,,0.00,meteobridge,2013-08-18 16:42:00,
2013-08-18 12:47:00,74.5,64.4,30.28,NE,55,0.0,4.0,71,0.00,,,0.00,meteobridge,2013-08-18 16:47:00,
2013-08-18 12:53:00,74.5,66.0,30.28,NNE,30,0.0,0.9,75,0.00,,,0.00,meteobridge,2013-08-18 16:53:00,
2013-08-18 12:58:00,74.5,64.9,30.28,WNW,287,0.9,2.9,72,0.00,,,0.00,meteobridge,2013-08-18 16:58:00,
2013-08-18 13:03:00,74.5,64.0,30.28,NE,54,0.0,6.0,70,0.00,,,0.00,meteobridge,2013-08-18 17:03:00,
2013-08-18 13:08:00,74.7,63.9,30.28,NNE,15,2.0,6.0,69,0.00,,,0.00,meteobridge,2013-08-18 17:08:00,
2013-08-18 13:13:00,74.8,64.8,30.27,NE,34,0.0,0.9,71,0.00,,,0.00,meteobridge,2013-08-18 17:13:00,
2013-08-18 13:18:00,75.4,64.6,30.27,NNE,14,0.9,4.9,69,0.00,,,0.00,meteobridge,2013-08-18 17:18:00,
2013-08-18 13:23:00,75.7,63.5,30.27,ENE,78,0.0,4.0,66,0.00,,,0.00,meteobridge,2013-08-18 17:23:00,
2013-08-18 13:28:00,76.3,62.2,30.27,NE,42,0.0,6.0,62,0.00,,,0.00,meteobridge,2013-08-18 17:28:00,
2013-08-18 13:33:00,76.6,63.5,30.26,South,171,0.9,4.0,64,0.00,,,0.00,meteobridge,2013-08-18 17:33:00,
2013-08-18 13:38:00,77.2,63.1,30.26,North,355,6.0,10.1,62,0.00,,,0.00,meteobridge,2013-08-18 17:38:00,
2013-08-18 13:43:00,77.2,64.0,30.26,North,5,0.0,4.0,64,0.00,,,0.00,meteobridge,2013-08-18 17:43:00,
2013-08-18 13:48:00,77.5,63.5,30.26,NNE,21,0.9,2.9,62,0.00,,,0.00,meteobridge,2013-08-18 17:48:00,
2013-08-18 13:53:00,77.7,62.2,30.25,NNE,24,2.0,6.0,59,0.00,,,0.00,meteobridge,2013-08-18 17:53:00,
2013-08-18 13:58:00,77.9,63.0,30.25,NNE,25,2.9,4.9,60,0.00,,,0.00,meteobridge,2013-08-18 17:58:00,
2013-08-18 14:03:00,77.7,61.3,30.25,SSW,207,0.9,8.1,57,0.00,,,0.00,meteobridge,2013-08-18 18:03:00,
2013-08-18 14:08:00,77.5,62.6,30.25,ENE,69,4.0,4.0,60,0.00,,,0.00,meteobridge,2013-08-18 18:08:00,
2013-08-18 14:13:00,77.4,61.9,30.24,NNE,19,0.0,4.0,59,0.00,,,0.00,meteobridge,2013-08-18 18:13:00,
2013-08-18 14:18:00,77.0,63.9,30.24,NE,49,2.9,6.9,64,0.00,,,0.00,meteobridge,2013-08-18 18:18:00,
2013-08-18 14:24:00,76.6,64.0,30.24,NNE,31,2.0,4.0,65,0.00,,,0.00,meteobridge,2013-08-18 18:24:00,
2013-08-18 14:29:00,76.6,63.5,30.24,NNE,26,0.0,4.0,64,0.00,,,0.00,meteobridge,2013-08-18 18:29:00,
2013-08-18 14:34:00,76.5,63.9,30.24,NNE,31,2.0,8.9,65,0.00,,,0.00,meteobridge,2013-08-18 18:34:00,
2013-08-18 14:39:00,76.3,63.7,30.23,NNW,342,2.9,4.0,65,0.00,,,0.00,meteobridge,2013-08-18 18:39:00,
2013-08-18 14:44:00,75.9,64.2,30.23,NNW,332,0.9,2.9,67,0.00,,,0.00,meteobridge,2013-08-18 18:44:00,
2013-08-18 14:49:00,75.7,64.0,30.23,North,0,0.0,4.0,67,0.00,,,0.00,meteobridge,2013-08-18 18:49:00,
2013-08-18 14:54:00,75.4,64.6,30.23,North,11,2.9,4.0,69,0.00,,,0.00,meteobridge,2013-08-18 18:54:00,
2013-08-18 14:59:00,75.0,63.3,30.22,North,350,4.0,6.9,67,0.00,,,0.00,meteobridge,2013-08-18 18:59:00,
2013-08-18 15:04:00,74.8,62.8,30.23,SE,146,0.9,4.0,66,0.00,,,0.00,meteobridge,2013-08-18 19:04:00,
2013-08-18 15:09:00,74.8,63.1,30.22,NE,37,0.9,2.9,67,0.00,,,0.00,meteobridge,2013-08-18 19:09:00,
2013-08-18 15:14:00,74.8,61.9,30.22,NNE,28,0.9,4.9,64,0.00,,,0.00,meteobridge,2013-08-18 19:14:00,
2013-08-18 15:19:00,74.8,62.8,30.22,SSE,168,0.9,4.9,66,0.00,,,0.00,meteobridge,2013-08-18 19:19:00,
2013-08-18 15:24:00,74.5,61.5,30.22,SE,124,0.0,6.0,64,0.00,,,0.00,meteobridge,2013-08-18 19:24:00,
2013-08-18 15:29:00,74.1,62.1,30.21,NNE,29,0.0,4.0,66,0.00,,,0.00,meteobridge,2013-08-18 19:29:00,
2013-08-18 15:34:00,73.9,61.3,30.21,East,94,4.0,4.0,65,0.00,,,0.00,meteobridge,2013-08-18 19:34:00,
2013-08-18 15:39:00,73.8,62.1,30.21,East,82,0.9,2.0,67,0.00,,,0.00,meteobridge,2013-08-18 19:39:00,
2013-08-18 15:44:00,73.9,61.3,30.21,ENE,67,0.9,2.9,65,0.00,,,0.00,meteobridge,2013-08-18 19:44:00,
2013-08-18 15:49:00,74.5,63.1,30.20,ESE,113,2.0,4.0,68,0.00,,,0.00,meteobridge,2013-08-18 19:49:00,
2013-08-18 15:54:00,74.7,60.8,30.20,NNE,12,6.0,6.0,62,0.00,,,0.00,meteobridge,2013-08-18 19:54:00,
2013-08-18 15:59:00,74.8,62.2,30.20,ESE,118,0.0,0.9,65,0.00,,,0.00,meteobridge,2013-08-18 19:59:00,
2013-08-18 16:04:00,74.8,61.0,30.20,NE,38,0.0,4.9,62,0.00,,,0.00,meteobridge,2013-08-18 20:04:00,
2013-08-18 16:09:00,74.8,61.3,30.20,ESE,117,0.0,2.0,63,0.00,,,0.00,meteobridge,2013-08-18 20:09:00,
2013-08-18 16:15:00,74.7,61.7,30.20,NNE,17,0.9,2.0,64,0.00,,,0.00,meteobridge,2013-08-18 20:15:00,
2013-08-18 16:20:00,74.5,60.1,30.20,East,96,0.0,2.0,61,0.00,,,0.00,meteobridge,2013-08-18 20:20:00,
2013-08-18 16:25:00,74.1,60.3,30.20,SE,130,0.0,4.9,62,0.00,,,0.00,meteobridge,2013-08-18 20:25:00,
2013-08-18 16:30:00,73.9,60.6,30.20,SE,124,0.9,4.9,63,0.00,,,0.00,meteobridge,2013-08-18 20:30:00,
2013-08-18 16:35:00,73.8,60.8,30.20,NW,312,2.0,4.9,64,0.00,,,0.00,meteobridge,2013-08-18 20:35:00,
2013-08-18 16:40:00,73.8,61.3,30.19,NNE,25,0.9,4.0,65,0.00,,,0.00,meteobridge,2013-08-18 20:40:00,
2013-08-18 16:45:00,73.8,61.7,30.19,ESE,119,0.0,2.0,66,0.00,,,0.00,meteobridge,2013-08-18 20:45:00,
2013-08-18 16:51:00,73.6,61.9,30.19,NE,46,0.9,6.9,67,0.00,,,0.00,meteobridge,2013-08-18 20:51:00,
2013-08-18 16:56:00,73.2,61.5,30.19,North,0,0.0,4.9,67,0.00,,,0.00,meteobridge,2013-08-18 20:56:00,
2013-08-18 17:01:00,73.2,62.1,30.19,NE,41,0.9,2.9,68,0.00,,,0.00,meteobridge,2013-08-18 21:01:00,
2013-08-18 17:06:00,73.0,61.5,30.19,NNE,18,8.1,8.1,67,0.00,,,0.00,meteobridge,2013-08-18 21:06:00,
2013-08-18 17:11:00,73.0,61.9,30.19,ESE,111,2.0,4.0,68,0.00,,,0.00,meteobridge,2013-08-18 21:11:00,
2013-08-18 17:17:00,73.0,62.2,30.19,ESE,110,0.0,0.0,69,0.00,,,0.00,meteobridge,2013-08-18 21:17:00,
2013-08-18 17:22:00,72.9,61.3,30.19,ENE,61,0.0,2.9,67,0.00,,,0.00,meteobridge,2013-08-18 21:22:00,
2013-08-18 17:27:00,72.7,61.2,30.19,ENE,76,2.0,2.9,67,0.00,,,0.00,meteobridge,2013-08-18 21:27:00,
2013-08-18 17:32:00,72.3,60.8,30.19,SE,136,2.0,2.0,67,0.00,,,0.00,meteobridge,2013-08-18 21:32:00,
2013-08-18 17:37:00,72.1,61.0,30.19,ESE,105,0.0,6.0,68,0.00,,,0.00,meteobridge,2013-08-18 21:37:00,
2013-08-18 17:42:00,72.1,62.2,30.19,ESE,105,0.0,0.9,71,0.01,,,0.01,meteobridge,2013-08-18 21:42:00,
2013-08-18 17:47:00,71.8,62.6,30.20,ESE,103,0.9,2.0,73,0.01,,,0.01,meteobridge,2013-08-18 21:47:00,
2013-08-18 17:53:00,71.4,63.1,30.20,ENE,68,0.0,0.0,75,0.01,,,0.01,meteobridge,2013-08-18 21:53:00,
2013-08-18 17:58:00,71.1,63.1,30.19,ENE,68,0.9,0.9,76,0.01,,,0.01,meteobridge,2013-08-18 21:58:00,
2013-08-18 18:03:00,70.3,62.4,30.20,ENE,68,0.9,2.0,76,0.01,,,0.01,meteobridge,2013-08-18 22:03:00,
2013-08-18 18:08:00,69.8,62.2,30.19,ENE,68,0.0,0.9,77,0.01,,,0.01,meteobridge,2013-08-18 22:08:00,
2013-08-18 18:13:00,69.4,62.2,30.19,ENE,68,0.0,0.0,78,0.01,,,0.01,meteobridge,2013-08-18 22:13:00,
2013-08-18 18:18:00,69.1,61.9,30.19,ENE,68,0.0,0.0,78,0.01,,,0.01,meteobridge,2013-08-18 22:18:00,
2013-08-18 18:24:00,68.7,62.2,30.19,ENE,68,0.0,0.0,80,0.01,,,0.01,meteobridge,2013-08-18 22:24:00,
2013-08-18 18:29:00,68.5,62.1,30.19,ENE,68,0.0,0.0,80,0.01,,,0.01,meteobridge,2013-08-18 22:29:00,
2013-08-18 18:34:00,68.4,61.9,30.19,ENE,68,0.0,0.0,80,0.01,,,0.01,meteobridge,2013-08-18 22:34:00,
2013-08-18 18:39:00,68.2,62.1,30.19,ENE,68,0.0,0.0,81,0.01,,,0.01,meteobridge,2013-08-18 22:39:00,
2013-08-18 18:44:00,68.0,62.2,30.19,ENE,68,0.0,0.0,82,0.00,,,0.01,meteobridge,2013-08-18 22:44:00,
2013-08-18 18:50:00,68.0,62.6,30.19,ENE,68,0.0,0.9,83,0.00,,,0.01,meteobridge,2013-08-18 22:50:00,
2013-08-18 18:55:00,67.8,61.7,30.19,ENE,69,0.0,2.0,81,0.00,,,0.01,meteobridge,2013-08-18 22:55:00,
2013-08-18 19:00:00,68.0,61.9,30.20,ENE,69,0.0,0.0,81,0.00,,,0.01,meteobridge,2013-08-18 23:00:00,
2013-08-18 19:05:00,67.8,62.1,30.20,ENE,69,0.0,0.0,82,0.00,,,0.01,meteobridge,2013-08-18 23:05:00,
2013-08-18 19:10:00,67.8,61.7,30.20,ENE,69,0.0,0.0,81,0.00,,,0.01,meteobridge,2013-08-18 23:10:00,
2013-08-18 19:15:00,67.6,61.5,30.19,ENE,69,0.0,0.0,81,0.00,,,0.01,meteobridge,2013-08-18 23:15:00,
2013-08-18 19:20:00,67.6,61.5,30.19,ENE,69,0.0,0.0,81,0.00,,,0.01,meteobridge,2013-08-18 23:20:00,
2013-08-18 19:25:00,67.5,61.3,30.19,ENE,69,0.0,0.0,81,0.00,,,0.01,meteobridge,2013-08-18 23:25:00,
2013-08-18 19:30:00,67.5,61.2,30.19,ENE,69,0.0,0.0,80,0.00,,,0.01,meteobridge,2013-08-18 23:30:00,
2013-08-18 19:35:00,67.3,61.0,30.19,ENE,69,0.0,0.0,80,0.00,,,0.01,meteobridge,2013-08-18 23:35:00,
2013-08-18 19:40:00,67.3,60.3,30.19,ENE,69,0.0,0.9,78,0.00,,,0.01,meteobridge,2013-08-18 23:40:00,
2013-08-18 19:45:00,67.3,61.0,30.19,ENE,69,0.0,0.0,80,0.00,,,0.01,meteobridge,2013-08-18 23:45:00,
2013-08-18 19:50:00,67.3,61.0,30.20,ENE,69,0.0,0.0,80,0.00,,,0.01,meteobridge,2013-08-18 23:50:00,
2013-08-18 19:56:00,67.1,61.2,30.20,ENE,69,0.0,0.0,81,0.00,,,0.01,meteobridge,2013-08-18 23:56:00,
2013-08-18 20:01:00,67.1,61.7,30.20,ENE,69,0.0,0.0,83,0.00,,,0.01,meteobridge,2013-08-19 00:01:00,
2013-08-18 20:06:00,67.1,61.7,30.21,ENE,69,0.0,0.0,83,0.00,,,0.01,meteobridge,2013-08-19 00:06:00,
2013-08-18 20:11:00,66.9,61.9,30.20,ENE,69,0.0,0.0,84,0.00,,,0.01,meteobridge,2013-08-19 00:11:00,
2013-08-18 20:16:00,66.9,62.2,30.20,ENE,69,0.0,0.0,85,0.00,,,0.01,meteobridge,2013-08-19 00:16:00,
2013-08-18 20:21:00,66.7,62.4,30.19,ENE,69,0.0,0.0,86,0.00,,,0.01,meteobridge,2013-08-19 00:21:00,
2013-08-18 20:26:00,66.6,62.2,30.19,ENE,69,0.0,0.0,86,0.00,,,0.01,meteobridge,2013-08-19 00:26:00,
2013-08-18 20:31:00,66.4,62.4,30.19,ENE,69,0.0,0.0,87,0.00,,,0.01,meteobridge,2013-08-19 00:31:00,
2013-08-18 20:36:00,66.4,62.8,30.19,ENE,69,0.0,0.0,88,0.00,,,0.01,meteobridge,2013-08-19 00:36:00,
2013-08-18 20:41:00,66.2,62.6,30.20,ENE,69,0.0,0.0,88,0.00,,,0.01,meteobridge,2013-08-19 00:41:00,
2013-08-18 20:47:00,66.2,62.8,30.19,ENE,69,0.0,0.0,89,0.00,,,0.01,meteobridge,2013-08-19 00:47:00,
2013-08-18 20:52:00,66.0,62.6,30.19,ENE,69,0.0,0.0,89,0.00,,,0.01,meteobridge,2013-08-19 00:52:00,
2013-08-18 20:57:00,65.8,61.9,30.19,ENE,69,0.0,0.0,87,0.00,,,0.01,meteobridge,2013-08-19 00:57:00,
2013-08-18 21:02:00,65.8,62.2,30.19,ENE,69,0.0,0.0,88,0.00,,,0.01,meteobridge,2013-08-19 01:02:00,
2013-08-18 21:07:00,65.8,61.5,30.19,ENE,69,0.0,0.0,86,0.00,,,0.01,meteobridge,2013-08-19 01:07:00,
2013-08-18 21:12:00,65.7,60.6,30.19,NNE,26,0.0,0.0,84,0.00,,,0.01,meteobridge,2013-08-19 01:12:00,
2013-08-18 21:17:00,65.7,60.4,30.20,NNE,26,0.0,0.0,83,0.00,,,0.01,meteobridge,2013-08-19 01:17:00,
2013-08-18 21:23:00,65.5,59.2,30.20,NNE,31,0.0,2.0,80,0.00,,,0.01,meteobridge,2013-08-19 01:23:00,
2013-08-18 21:28:00,65.5,59.5,30.20,NNE,31,0.0,0.0,81,0.00,,,0.01,meteobridge,2013-08-19 01:28:00,
2013-08-18 21:33:00,65.1,59.2,30.20,NNE,31,0.0,0.0,81,0.00,,,0.01,meteobridge,2013-08-19 01:33:00,
2013-08-18 21:38:00,64.9,58.3,30.20,NNE,31,0.0,0.0,79,0.00,,,0.01,meteobridge,2013-08-19 01:38:00,
2013-08-18 21:43:00,64.6,57.9,30.20,NNE,31,0.0,0.0,79,0.00,,,0.01,meteobridge,2013-08-19 01:43:00,
2013-08-18 21:48:00,64.2,57.9,30.20,NNE,31,0.0,0.0,80,0.00,,,0.01,meteobridge,2013-08-19 01:48:00,
2013-08-18 21:53:00,64.0,58.5,30.20,NNE,31,0.0,0.0,82,0.00,,,0.01,meteobridge,2013-08-19 01:53:00,
2013-08-18 21:58:00,63.9,58.6,30.21,NNE,31,0.0,0.0,83,0.00,,,0.01,meteobridge,2013-08-19 01:58:00,
2013-08-18 22:04:00,63.9,59.0,30.21,NNE,31,0.0,0.0,84,0.00,,,0.01,meteobridge,2013-08-19 02:04:00,
2013-08-18 22:09:00,63.7,59.0,30.21,NNE,31,0.0,0.0,85,0.00,,,0.01,meteobridge,2013-08-19 02:09:00,
2013-08-18 22:14:00,63.3,58.5,30.21,NNE,31,0.0,0.0,84,0.00,,,0.01,meteobridge,2013-08-19 02:14:00,
2013-08-18 22:19:00,63.1,58.3,30.21,NNE,31,0.0,0.0,84,0.00,,,0.01,meteobridge,2013-08-19 02:19:00,
2013-08-18 22:25:00,63.0,57.7,30.21,NNE,31,0.0,0.0,83,0.00,,,0.01,meteobridge,2013-08-19 02:25:00,
2013-08-18 22:30:00,63.0,58.1,30.21,NNE,31,0.0,0.9,84,0.00,,,0.01,meteobridge,2013-08-19 02:30:00,
2013-08-18 22:35:00,63.0,58.6,30.21,NNE,31,0.0,0.0,86,0.00,,,0.01,meteobridge,2013-08-19 02:35:00,
2013-08-18 22:40:00,63.0,58.6,30.21,NNE,31,0.0,0.0,86,0.00,,,0.01,meteobridge,2013-08-19 02:40:00,
2013-08-18 22:45:00,63.0,58.5,30.21,NNE,31,0.0,0.0,85,0.00,,,0.01,meteobridge,2013-08-19 02:45:00,
2013-08-18 22:50:00,62.8,58.3,30.20,NNE,31,0.0,0.0,85,0.00,,,0.01,meteobridge,2013-08-19 02:50:00,
2013-08-18 22:55:00,62.6,58.1,30.21,NNE,31,0.0,0.0,85,0.00,,,0.01,meteobridge,2013-08-19 02:55:00,
2013-08-18 23:00:00,62.4,58.1,30.20,NNE,31,0.0,0.0,86,0.00,,,0.01,meteobridge,2013-08-19 03:00:00,
2013-08-18 23:06:00,62.2,58.3,30.21,NNE,31,0.0,0.0,87,0.00,,,0.01,meteobridge,2013-08-19 03:06:00,
2013-08-18 23:11:00,62.2,58.6,30.21,NNE,31,0.0,0.0,88,0.00,,,0.01,meteobridge,2013-08-19 03:11:00,
2013-08-18 23:17:00,62.2,58.3,30.21,NNE,31,0.0,0.0,87,0.00,,,0.01,meteobridge,2013-08-19 03:17:00,
2013-08-18 23:22:00,62.1,58.1,30.21,NNE,31,0.0,0.0,87,0.00,,,0.01,meteobridge,2013-08-19 03:22:00,
2013-08-18 23:27:00,62.1,58.5,30.21,NNE,31,0.0,0.0,88,0.00,,,0.01,meteobridge,2013-08-19 03:27:00,
2013-08-18 23:32:00,62.1,58.5,30.20,NNE,31,0.0,0.0,88,0.00,,,0.01,meteobridge,2013-08-19 03:32:00,
2013-08-18 23:37:00,62.1,58.5,30.20,NNE,31,0.0,0.0,88,0.00,,,0.01,meteobridge,2013-08-19 03:37:00,
2013-08-18 23:42:00,62.1,58.8,30.20,NNE,31,0.0,0.0,89,0.00,,,0.01,meteobridge,2013-08-19 03:42:00,
2013-08-18 23:47:00,61.9,58.6,30.20,NNE,31,0.0,0.0,89,0.00,,,0.01,meteobridge,2013-08-19 03:47:00,
2013-08-18 23:53:00,61.5,57.9,30.20,NNE,31,0.0,0.0,88,0.00,,,0.01,meteobridge,2013-08-19 03:53:00,
2013-08-18 23:58:00,61.5,57.9,30.20,NNE,31,0.0,0.0,88,0.00,,,0.01,meteobridge,2013-08-19 03:58:00,